Location: Canet
(43.3261°N, 5.3723°E)
Time: 19:10:32
(UTC+00:00)

Cosmos 2195 Rocket - Pass Details

Date: 24 January 2021
Orbit: 948 x 994 km, 82.9° (Epoch: 08 March)

Event Time Altitude Azimuth Distance (km) Brightness Sun altitude
Rises 18:01:38 0° 179° (S) 3,688 7.7 -14.9°
Reaches altitude 10° 18:04:09 10° 177° (S) 2,747 7.0 -15.3°
Maximum altitude 18:10:26 73° 94° (E) 1,041 4.4 -16.4°
Drops below altitude 10° 18:16:46 10° 12° (NNE) 2,766 6.7 -17.5°
Sets 18:19:18 0° 10° (N) 3,717 7.3 -18.0°
